Погода в Ковде

Погода в Ковде : погода сейчас, прогноз погоды и архив. Всё, что Вы хотите узнать о погоде в Ковде!

Поиск расширенной информации на нашем сайте:

Другие новости

Новости СМИ2

Главная страница сайта

Новости сайта

03.07.2017

Напоминаем, что на нашем специализированном сайте Метеоцентр.Азия вы можете получить высокодетализированные автоматические прогнозы погоды по пунктам России, СНГ и мира в авиационном формате (включающие направление и скорость ветра, видимость, явления погоды, количество и форму облачности, нижнюю и верхнюю границу облачности).

Рекомендуем: Организации National University of Ireland.

Погода в Ковде - сегодня

Время (UTC), дата Ветер
(°,м/с) 
Видим.   Явления Облачность Т
(°С)
Тd
(°С)
f(%) Тe
(°С)
Pmin
(гПа)
dP
(гПа)
Po
(мм)
O2
(г/м3)
Тmin Tmax R s Состояние
почвы
03 12.12.17 070 (В) 1-1  н/о    н/о 
-1.7 -1.7 100 -1  1007.4  -1.2  754  306  -2.8         
06 12.12.17 090 (В) 1-2  4000 м  слаб. ливневой снег  10/10 300 м кучево-дожд. 
[Cb cap]
-1.2 -1.2 100 -1  1005.7  -1.7  753  305  -2.8    31  неравномерный
сухой снег
100% 
09 12.12.17 тихо ()   4000 м  слаб. ливневой снег  10/10 300 м кучево-дожд. 
[Cb cap]
-1 -1 100 -1  1003.6  -2.2  751  304           
12 12.12.17 180 (Ю) 2-4  10 км  {ливн. осадки}  10/10 300 м 
[St]
-2.3 -2.3 100 -3  1002.9  -0.7  751  305           
15 12.12.17 100 (В) 1-1  10 км  слаб. ливневой снег  10/10 300 м кучево-дожд. 
[Cb cap]
-2.5 -2.5 100 -2  1001.6  -1.3  750  305         
18 12.12.17 130 (ЮВ) 3-5  10 км  в посл. час ливневой снег  10/10 300 м кучево-дожд. 
[Cb cap]
-0.3 -0.3 100 -2  997.5  -4  746  301    -0.3     
21 12.12.17 120 (ЮВ) 4-9{12}  н/о  ливневой снег  10/10 300 м кучево-дожд. 
[Cb cap]
-0.5 -0.5 100 -3  991.6  -5.8  742  300           
00 13.12.17 130 (ЮВ) 4-9{12}  н/о    н/о 
-1.3 -1.3 100 -4  986.7  -4.9  738  299           
03 13.12.17 150 (ЮВ) 4-7{11}  н/о    н/о 
-1.2 -1.2 100 -4  981.8  -4.8  735  297  -2.5         
06 13.12.17 140 (ЮВ) 3-6  4000 м  слаб. ливневой снег  10/10 300 м кучево-дожд. 
[Cb cap]
-0.7 -0.7 100 -3  978.7  -3.1  732  296  -1.3    39  неравномерный
мокрый или
старый снег
100% 
09 13.12.17 160 (Ю) 3-5  2000 м  ливневой снег  10/10 200 м кучево-дожд. 
[Cb cap]
-0.2 -0.2 100 -2  976.5  -3.1  731  295           
12 13.12.17 200 (Ю) 2-7  10 км  в посл. час ливневой снег  9/8 300 м кучево-дожд., средняя 
[Cb cap|Ac trans]
-0.5 -0.5 100 -1  976.2  -3.1  731  295           
15 13.12.17 200 (Ю) 2-7  10 км  слаб. ливневой снег  10/10 300 м кучево-дожд. 
[Cb cap]
-2.3 -2.3 100 -3  977.7  -3.1  732  298      10     
18 13.12.17 210 (ЮЗ) 2-6  4000 м  слаб. ливневой снег  10/10 300 м кучево-дожд. 
[Cb cap]
-4.3 -4.6 98 -6  980.6  2.9  734  301    -0.1     
21 13.12.17 200 (Ю) 2-6  н/о    н/о 
-4.1 -4.5 97 -5  982.8  2.2  735  301           
00 14.12.17 190 (Ю) 3-6  н/о    н/о 
-4.3 -4.7 97 -7  984.5  1.6  737  302           
03 14.12.17 200 (Ю) 2-7  н/о    н/о 
-3.6 -4 97 -5  985.1  0.6  737  301  -4.8         
06 14.12.17 210 (ЮЗ) 1-6{10}  50000 м    3/3 600 м 
[Sc]
-3.4 -4 96 -3  988.1  739  302  -4.8    0.0  40  неравномерный
сухой снег
100% 
09 14.12.17 220 (ЮЗ) 1-4  20000 м    3/3 600 м 
[Sc]
-4.6 -4.9 98 -4  991.9  742  305           
12 14.12.17 тихо ()   20000 м    4/4 600 м 
[Sc]
-5.8 -6 98 -6  994.4  2.5  744  307           
15 14.12.17 210 (ЮЗ) 1-3  20000 м    10/10 600 м 
[Sc]
-3.1 -3.1 100 -3  995.7  1.3  745  304      0.0     
18 14.12.17 190 (Ю) 2-5  20000 м    10/10 600 м 
[Sc]
-0.1 -0.1 100 -1  997.3  1.3  746  301    -0.1       
21 14.12.17 190 (Ю) 2-4  н/о    н/о 
-0 -0 100 -1  999.2  1.9  748  301           
00 15.12.17 190 (Ю) 2-5  н/о    н/о 
-1.2 -1.5 98 -2  1000.7  1.5  749  303           
03 15.12.17 160 (Ю) 2-3  н/о    н/о 
-4.6 -4.8 98 -6  1001.9  1.2  750  308  -4.7         
Время (UTC), дата Ветер
(°,м/с) 
Видим.   Явления Облачность Т
(°С)
Тd
(°С)
f(%) Тe
(°С)
Pmin
(гПа)
dP
(гПа)
Po
(мм)
O2
(г/м3)
Тmin Tmax R s Состояние
почвы

Для получения пояснительной информации подведите курсор к названию столбца.

ПОГОДА в Ковде - архив

Всё, что Вы хотите узнать о погоде в Ковде - удобно и подробно!

Выберите нужную дату (начиная с 1 января 2015* года) и нажмите кнопку "Найти".
Будут отображены архивные сводки погоды по пункту Ковда, начиная с указанной даты.


Отображать данные в формате CSV (для использования в таблицах Excel)


Внимание! Наш архив погоды предназначен исключительно для личного некоммерческого использования в познавательных целях. Если Вам необходимы официальные справки о состоянии погоды (для производственных, юридических, коммерческих и т.п. целей), обращайтесь в органы Росгидромета.

*Примечание: данная дата относится к архиву по метеостанциям СССР (Россия, СНГ, Балтия).
Архив по метеостанциям Зарубежной Европы и Азии (кроме Китая) хранится 10 дней, по другим регионам земного шара (Китай, Африка, Америка, Австралия, Океания) - 1 день.

Ковда - район местоположения метеостанции


Название, широта, долгота, высота метеостанции:
Ковда 66.7°ш. 32.9°д. 18 м над ур. моря [Российская Федерация]

Дополнительная информация

В oтличие oт бoльшинства пoгoдных сайтoв мы публикуем пoдрoбную метеoинфoрмацию в детальнoм прoфессиoнальнoм фoрмате.

Характеристики температуры и влажнoсти вoздуха измеряются на высoте 2 м в тени вдали oт зданий и деревьев.
Скoрoсть ветра измеряется на высoте 10 м (на урoвне рoста челoвека скoрoсть ветра ниже в 1.5-2 раза). Если метеoстанция нахoдится в гoрoде или в лесу, тo скoрoсть ветра занижена на 2-4 м/с пo сравнению с oткрытым местoм. Скoрoсть ветра над акватoриями крупных рек и oзёр, а также на вершинах хoлмoв на 2-5 м/с выше, чем в oбычных услoвиях.
Атмoсфернoе давление в разных тoчках местнoсти мoжет значительнo oтличаться oт давления на метеoстанции, в зависимoсти oт услoвий рельефа (при пoдъёме на 10 м давление пoнижается примернo на 1 мм рт.ст.).